Location: Newark
(7.0858°N, 171.3717°E)
Time: 23:56:51
(UTC+00:00)

Explorer 11/Cluster Stage 4 - All Passes

Search period start: 05 December 2020 00:00
Search period end: 15 December 2020 00:00
Orbit: 467 x 1258 km, 28.8° (Epoch: 05 December)

Date Brightness Start Highest point End Pass type
(mag) Time Alt. Az. Time Alt. Az. Time Alt. Az.
05 Dec - 02:36:47 10° SSW 02:42:55 33° SE 02:49:52 10° E daylight
05 Dec - 04:24:29 10° WSW 04:32:07 79° NNW 04:40:25 10° ENE daylight
05 Dec - 06:15:01 10° W 06:22:02 31° NNW 06:29:01 10° NE daylight
05 Dec - 08:08:16 10° NW 08:12:39 15° NNW 08:16:51 10° NNE visible
05 Dec - 10:01:21 10° NNW 10:03:42 12° N 10:05:57 10° NNE visible
05 Dec - 11:50:03 10° NNW 11:54:16 18° NNE 11:57:58 10° ENE night (unlit)
05 Dec - 13:38:17 10° NW 13:43:45 51° NNE 13:48:07 10° ESE night (unlit)
05 Dec - 15:28:07 10° W 15:31:59 26° SW 15:35:22 10° SSE visible
06 Dec - 02:25:42 10° SSW 02:31:52 38° SE 02:39:01 10° E daylight
06 Dec - 04:13:40 10° WSW 04:21:04 69° NNW 04:29:18 10° NE daylight
06 Dec - 06:04:25 10° WNW 06:11:05 28° NNW 06:17:51 10° NE daylight
06 Dec - 07:57:40 10° NW 08:01:53 15° N 08:05:58 10° NNE visible
06 Dec - 09:49:54 10° NNW 09:53:02 13° N 09:55:58 10° NNE visible
06 Dec - 11:38:35 10° NNW 11:43:34 21° NNE 11:47:50 10° ENE night (unlit)
06 Dec - 13:27:08 10° NW 13:32:58 65° NNE 13:37:35 10° ESE night (unlit)
06 Dec - 15:17:31 10° W 15:21:10 21° SW 15:24:21 10° SSE night (unlit)
07 Dec - 02:14:42 10° SW 02:20:50 44° SSE 02:28:06 10° ENE daylight
07 Dec - 04:02:54 10° WSW 04:10:03 59° NNW 04:18:07 10° NE daylight
07 Dec - 05:53:53 10° WNW 06:00:11 25° NNW 06:06:39 10° NNE daylight
07 Dec - 07:47:03 10° NW 07:51:08 14° N 07:55:07 10° NNE visible
07 Dec - 09:38:31 10° NNW 09:42:20 14° N 09:45:54 10° NE visible
07 Dec - 11:27:11 10° NW 11:32:49 25° NNE 11:37:36 10° ENE night (unlit)
07 Dec - 13:16:00 10° WNW 13:22:09 81° NNE 13:26:59 10° ESE night (unlit)
07 Dec - 15:07:00 10° WSW 15:10:19 18° SW 15:13:15 10° S night (unlit)
08 Dec - 00:19:34 10° SSE 00:21:14 11° SE 00:23:00 10° SE daylight
08 Dec - 02:03:45 10° SW 02:09:48 52° SSE 02:17:07 10° ENE daylight
08 Dec - 03:52:12 10° W 03:59:03 51° NNW 04:06:54 10° NE daylight
08 Dec - 05:43:24 10° WNW 05:49:19 23° NNW 05:55:26 10° NNE daylight
08 Dec - 07:36:23 10° NW 07:40:24 14° N 07:44:19 10° NNE visible
08 Dec - 09:27:10 10° NNW 09:31:36 16° N 09:35:45 10° NE visible
08 Dec - 11:15:49 10° NW 11:22:02 30° NNE 11:27:17 10° E night (unlit)
08 Dec - 13:04:53 10° WNW 13:11:18 83° SSW 13:16:20 10° ESE night (unlit)
08 Dec - 14:56:36 10° WSW 14:59:28 15° SW 15:02:02 10° S night (unlit)
09 Dec - 00:07:49 10° S 00:10:21 13° SE 00:13:06 10° ESE daylight
09 Dec - 01:52:53 10° SW 01:58:48 61° SSE 02:06:06 10° ENE daylight
09 Dec - 03:41:35 10° W 03:48:06 44° NNW 03:55:39 10° NE daylight
09 Dec - 05:32:58 10° WNW 05:38:29 20° NNW 05:44:13 10° NNE daylight
09 Dec - 07:25:40 10° NNW 07:29:39 14° N 07:33:35 10° NNE visible
09 Dec - 09:15:50 10° NNW 09:20:51 18° N 09:25:31 10° NE visible
09 Dec - 11:04:28 10° NW 11:11:13 36° NNE 11:16:51 10° E night (unlit)
09 Dec - 12:53:48 10° WNW 13:00:24 68° SSW 13:05:36 10° SE night (unlit)
09 Dec - 14:46:25 10° WSW 14:48:35 12° SW 14:50:37 10° S night (unlit)
09 Dec - 23:56:25 10° S 23:59:27 15° SE 00:02:49 10° ESE daylight
10 Dec - 01:42:04 10° SW 01:47:49 72° SSE 01:55:01 10° ENE daylight
10 Dec - 03:31:02 10° W 03:37:11 37° NNW 03:44:21 10° NE daylight
10 Dec - 05:22:37 10° NW 05:27:40 18° NNW 05:32:59 10° NNE daylight
10 Dec - 07:14:53 10° NNW 07:18:55 14° N 07:22:54 10° NNE visible
10 Dec - 09:04:30 10° NNW 09:10:04 20° NNE 09:15:14 10° ENE visible
10 Dec - 10:53:10 10° NW 11:00:21 43° NNE 11:06:21 10° E night (unlit)
10 Dec - 12:42:46 10° WNW 12:49:28 57° SSW 12:54:49 10° SE night (unlit)
10 Dec - 14:36:48 10° SW 14:37:43 10° SW 14:38:37 10° SSW night (unlit)
10 Dec - 23:45:11 10° S 23:48:32 18° SE 23:52:22 10° ESE daylight
11 Dec - 01:31:19 10° WSW 01:36:52 86° SSE 01:43:54 10° ENE daylight
11 Dec - 03:20:33 10° W 03:26:19 32° NNW 03:33:02 10° NE daylight
11 Dec - 05:12:17 10° NW 05:16:53 17° N 05:21:44 10° NNE daylight
11 Dec - 07:04:03 10° NNW 07:08:10 14° N 07:12:17 10° NE visible
11 Dec - 08:53:12 10° NNW 08:59:15 22° NNE 09:04:53 10° ENE visible
11 Dec - 10:41:53 10° NW 10:49:26 51° NNE 10:55:47 10° E night (unlit)
11 Dec - 12:31:45 10° WNW 12:38:30 47° SSW 12:43:58 10° SE night (unlit)
11 Dec - 23:34:04 10° SSW 23:37:38 21° SE 23:41:48 10° E daylight
12 Dec - 01:20:38 10° WSW 01:25:58 79° NNW 01:32:45 10° ENE daylight
12 Dec - 03:10:10 10° WNW 03:15:30 27° NNW 03:21:40 10° NE daylight
12 Dec - 05:02:01 10° NW 05:06:08 15° N 05:10:29 10° NNE daylight
12 Dec - 06:53:10 10° NNW 06:57:24 15° N 07:01:42 10° NE visible
12 Dec - 08:41:56 10° NW 08:48:24 25° NNE 08:54:29 10° ENE visible
12 Dec - 10:30:38 10° NW 10:38:29 60° NNE 10:45:08 10° ESE night (unlit)
12 Dec - 12:20:47 10° WNW 12:27:30 40° SW 12:33:03 10° SE night (unlit)
12 Dec - 23:23:01 10° SSW 23:26:45 25° SE 23:31:08 10° E daylight
13 Dec - 01:10:01 10° WSW 01:15:06 65° NNW 01:21:34 10° NE daylight
13 Dec - 02:59:52 10° WNW 03:04:42 23° NNW 03:10:17 10° NNE daylight
13 Dec - 04:51:47 10° NW 04:55:24 14° N 04:59:13 10° NNE daylight
13 Dec - 06:42:13 10° NNW 06:46:39 15° N 06:51:09 10° NE visible
13 Dec - 08:30:41 10° NW 08:37:30 28° NNE 08:43:59 10° ENE visible
13 Dec - 10:19:25 10° NW 10:27:30 70° NNE 10:34:26 10° ESE visible
13 Dec - 12:09:53 10° W 12:16:30 35° SW 12:22:04 10° SSE night (unlit)
13 Dec - 23:12:04 10° SSW 23:15:52 30° SE 23:20:25 10° E daylight
14 Dec - 00:59:27 10° WSW 01:04:17 52° NNW 01:10:22 10° NE daylight
14 Dec - 02:49:38 10° WNW 02:53:57 20° NNW 02:58:52 10° NNE daylight
14 Dec - 04:41:34 10° NNW 04:44:41 13° N 04:47:58 10° NNE daylight
14 Dec - 06:31:15 10° NNW 06:35:52 16° N 06:40:36 10° NE visible
14 Dec - 08:19:27 10° NW 08:26:35 32° NNE 08:33:26 10° E visible
14 Dec - 10:08:15 10° WNW 10:16:28 81° NNE 10:23:38 10° ESE visible
14 Dec - 11:59:02 10° W 12:05:28 30° SW 12:11:01 10° SSE night (unlit)
14 Dec - 23:01:11 10° SW 23:05:01 37° SSE 23:09:38 10° E daylight
